[[{"header":{"parameterUnit":"m.s-1","parameterCategory":1,"la1":30.2991,"la2":30.254,"lo1":-89.0895,"lo2":-89.0444,"dy":0.0017,"dx":0.0017,"nx":28,"ny":28,"refTime":"2023-10-20T09:00:00:Z","depth":0,"parameterNumber":2,"parameterNumberName":"U-component_of_WINDS"},"data":[0,0,0,0,0,0,0,0,0,0,0,0,0,0,0,0,0,0,0,0,0,0,0,0,0,0,0,0,0,0,0,0,0,0,0,0,0,0,0,0,0,0,0,0,0,0,0,0,0,0,0,0,0,0,0,0,0,0,2.9121,2.9122,0,2.9173,2.9174,2.9175,2.9109,2.9107,2.9104,2.9102,2.9158,2.9162,2.9166,0,0,0,0,0,0,0,0,0,0,0,0,0,2.8969,2.8972,2.9121,2.9122,2.9123,2.9173,2.9174,2.9175,2.911,2.9107,2.9104,2.9101,2.9157,2.9162,2.9166,0,0,0,0,0,0,0,0,0,0,0,0,0,2.903,2.8973,2.9121,2.9096,2.9095,2.9173,2.9174,2.9175,2.911,2.9107,2.9103,2.91,2.9156,2.9161,2.9167,2.9273,0,0,2.9184,2.9186,0,0,0,0,0,0,0,0,2.9026,2.9035,2.9099,2.9098,2.9096,2.9131,2.9141,2.9208,2.9111,2.9104,2.9102,2.9098,2.9152,2.9158,2.9176,2.9276,2.9278,2.9184,2.9188,2.919,2.9192,0,0,0,0,0,0,0,2.9022,2.9033,2.9142,2.91,2.9099,2.9083,2.9088,2.9153,2.9148,2.9105,2.91,2.9107,2.9151,2.9171,2.9177,2.9279,2.9184,2.9189,2.9193,2.9195,2.947,2.9474,0,0,0,0,0,0,2.9021,2.903,2.914,2.9144,2.9052,2.9089,2.9094,2.9124,2.9147,2.9147,2.911,2.9104,2.9163,2.917,2.9178,2.9305,2.919,2.9195,2.9199,2.9466,2.9471,2.9475,0,0,0,0,0,0,2.9017,2.9031,2.9138,2.9085,2.9098,2.9096,2.9129,2.9127,2.9146,2.9151,2.915,2.9131,2.916,2.9171,2.925,2.9306,2.9198,2.9203,2.9461,2.9467,2.9473,2.9558,0,0,0,0,0,0,2.9013,2.903,2.907,2.9087,2.9101,2.9208,2.9132,2.913,2.9155,2.9148,2.917,2.9171,2.9158,2.9242,2.9256,2.9311,2.9207,2.9456,2.9464,2.9471,2.955,2.9566,2.958,0,0,0,0,0,2.9008,2.9093,2.9072,2.9086,2.915,2.9212,2.922,2.9203,2.916,2.9201,2.9204,2.917,2.9298,2.9251,2.9265,2.9324,2.9453,2.9462,2.947,2.9544,2.9563,2.958,0,0,0,0,0,0,2.9083,2.9094,2.9072,2.9164,2.9187,2.92,2.9251,2.9224,2.9261,2.9252,2.923,2.9236,2.9321,2.933,2.9278,2.9428,2.9368,2.9381,2.9419,2.9437,2.9452,2.9448,2.9212,0,0,0,0,0,2.911,2.9158,2.9166,2.9246,2.9259,2.9253,2.9279,2.9264,2.9288,2.9298,2.9307,2.9332,2.9377,2.9408,2.945,2.9552,2.9556,2.9599,2.9614,2.9626,2.9637,2.9691,2.9711,2.9504,2.9504,2.9504,0,0,2.9167,2.9179,2.9211,2.9262,2.9278,2.9329,2.9262,2.9319,2.9356,2.9306,2.9381,2.939,2.9416,2.9507,2.9548,2.9518,2.9695,2.9637,2.9647,2.9651,2.9703,2.9722,2.9739,2.951,2.9509,2.9508,0,0,2.9296,2.931,2.9379,2.9396,2.9421,2.9417,2.9434,2.9451,2.9454,2.9529,2.9493,2.9538,2.9617,2.9638,2.9659,2.9797,2.9767,2.9811,2.9888,2.9942,2.9958,2.9972,3.0022,3.0039,2.9822,2.9822,2.9823,0,2.9364,2.9438,2.9418,2.9477,2.9501,2.9457,2.9527,2.9545,2.9584,2.9602,2.9567,2.9666,2.9681,2.9776,2.981,2.9828,2.9847,2.9808,2.9957,2.9971,2.9984,3.0031,3.005,2.9828,2.9827,2.9826,2.9826,0,2.952,2.9572,2.9625,2.9662,2.9691,2.9756,2.9746,2.9779,2.9762,2.9762,2.9839,2.9856,2.99,2.9922,2.9906,3.0016,2.9996,2.996,2.9899,3.001,3.0053,3.0071,2.9835,2.9833,2.9832,2.983,0,0,2.9697,2.9722,2.9742,2.9758,2.9783,2.9823,2.9887,2.9929,2.9958,2.9987,3.0039,3.0107,3.0074,3.0098,3.0084,3.0131,3.024,3.0089,3.009,3.0117,3.0361,3.0388,3.0409,3.022,3.0224,3.0226,3.0359,0,2.9826,2.9933,2.9917,3.0021,3.0069,3.0029,3.0084,3.0106,3.0108,3.015,3.0152,3.0201,3.0154,3.0168,3.0212,3.0217,3.0288,3.0207,3.027,3.0272,3.0264,3.0432,3.046,3.0584,3.0376,3.0379,3.0381,0,2.999,3.0023,3.0132,3.015,3.0169,3.0219,3.0257,3.0298,3.0323,3.0321,3.0348,3.0325,3.039,3.0328,3.0416,3.0362,3.0386,3.0393,3.0397,3.0402,3.0333,3.0441,3.0623,3.0642,3.0408,3.0405,3.0403,0,3.0108,3.018,3.0254,3.027,3.0292,3.0328,3.034,3.036,3.0388,3.0422,3.0439,3.0481,3.0504,3.0537,3.0528,3.0484,3.0619,3.0556,3.0619,3.062,3.0649,3.0647,3.0838,3.0666,3.0666,3.0665,3.0665,0,3.0253,3.0321,3.0307,3.0353,3.0428,3.041,3.0486,3.0492,3.0512,3.0559,3.0527,3.0573,3.0557,3.0602,3.0595,3.067,3.068,3.0681,3.0678,3.0684,3.0683,3.0699,3.069,3.067,3.0669,3.0668,3.0667,0,3.0396,3.039,3.0468,3.0483,3.0489,3.0544,3.0557,3.0601,3.06,3.0661,3.0674,3.0673,3.0725,3.0718,3.0776,3.0771,3.0864,3.0851,3.0855,3.0852,3.0915,3.0909,3.1122,3.1149,3.0961,3.0962,3.0964,0,3.0489,3.054,3.0561,3.0589,3.0603,3.065,3.0677,3.0662,3.0692,3.0725,3.0765,3.0813,3.085,3.0934,3.094,3.0984,3.0971,3.1043,3.0978,3.0981,3.0972,3.0969,3.0974,3.1056,3.1058,3.1059,3.1061,0,3.0653,3.0648,3.0688,3.0728,3.0761,3.0792,3.0819,3.0845,3.0833,3.0868,3.0919,3.0949,3.1007,3.1055,3.1097,3.111,3.1084,3.1082,3.1098,3.1104,3.1104,3.1104,3.0889,3.1077,3.1075,3.1074,3.1073,3.1072,3.0774,3.0817,3.0839,3.0885,3.0904,3.0931,3.0972,3.0977,3.1019,3.1065,3.1054,3.1112,3.1137,3.119,3.1207,3.1253,3.1227,3.1252,3.1258,3.1264,3.1271,3.1097,3.1261,3.126,3.126,3.126,3.1259,0,3.0936,3.0948,3.0991,3.103,3.1067,3.1038,3.1068,3.1101,3.1152,3.1176,3.1214,3.1274,3.1321,3.133,3.1376,3.1411,3.14,3.1423,3.142,3.1424,3.1292,3.1273,3.1431,3.1431,3.1431,3.1431,3.1431,3.1431,3.1025,3.1097,3.1095,3.1177,3.1189,3.1245,3.1264,3.1289,3.1308,3.1376,3.1415,3.142,3.144,3.1486,3.1529,3.153,3.1548,3.1576,3.1573,3.145,3.1433,3.1416,3.1398,3.158,3.1581,3.1701,3.1702,3.1703]},{"header":{"parameterUnit":"m.s-1","parameterCategory":1,"la1":30.2991,"la2":30.254,"lo1":-89.0895,"lo2":-89.0444,"dy":0.0017,"dx":0.0017,"nx":28,"ny":28,"refTime":"2023-10-20T09:00:00:Z","depth":0,"parameterNumber":3,"parameterNumberName":"V-component_of_WINDS"},"data":[0,0,0,0,0,0,0,0,0,0,0,0,0,0,0,0,0,0,0,0,0,0,0,0,0,0,0,0,0,0,0,0,0,0,0,0,0,0,0,0,0,0,0,0,0,0,0,0,0,0,0,0,0,0,0,0,0,0,2.9788,2.9789,0,2.9934,2.9936,2.9938,2.9953,2.9952,2.995,2.9949,3.01,3.0105,3.011,0,0,0,0,0,0,0,0,0,0,0,0,0,2.9523,2.9527,2.9788,2.9789,2.9791,2.9934,2.9936,2.9938,2.9954,2.9952,2.995,2.9948,3.0098,3.0104,3.0111,0,0,0,0,0,0,0,0,0,0,0,0,0,2.965,2.9529,2.9787,2.9816,2.982,2.9934,2.9936,2.9938,2.9954,2.9952,2.995,2.9947,3.0096,3.0104,3.0112,3.0206,0,0,3.0136,3.014,0,0,0,0,0,0,0,0,2.9643,2.966,2.981,2.9814,2.9819,2.9923,2.9898,3.0028,2.9955,2.9903,2.9949,2.9946,3.0043,3.0055,3.0088,3.0213,3.022,3.0137,3.0142,3.0145,3.0148,0,0,0,0,0,0,0,2.9634,2.9654,2.9846,2.9812,2.9818,2.9822,2.9838,2.9923,2.9984,2.9908,2.9909,2.9926,3.0045,3.008,3.0091,3.0222,3.0137,3.0144,3.0149,3.0152,3.0434,3.0436,0,0,0,0,0,0,2.962,2.9646,2.9841,2.985,2.9724,2.9829,2.9846,2.9892,2.9983,2.9995,2.9928,2.9926,3.0067,3.0082,3.0097,3.0214,3.0145,3.0153,3.0158,3.0431,3.0434,3.0437,0,0,0,0,0,0,2.9614,2.9637,2.9835,2.9749,2.9774,2.9836,2.9887,2.9896,2.9931,2.9998,3.0009,2.9952,3.0066,3.0085,3.0179,3.022,3.0157,3.0164,3.0428,3.0432,3.0436,3.045,0,0,0,0,0,0,2.9606,2.9635,2.9671,2.9749,2.9779,2.9915,2.9889,2.9901,2.9945,2.9944,3.0024,3.0035,3.0065,3.0167,3.0187,3.023,3.017,3.0425,3.043,3.0435,3.0446,3.0453,3.046,0,0,0,0,0,2.9597,2.9669,2.9673,2.9696,2.9825,2.9917,2.9934,2.9967,2.9948,2.9985,3.0029,3.0033,3.0212,3.0176,3.0199,3.0245,3.0422,3.0428,3.0434,3.0443,3.0452,3.046,0,0,0,0,0,0,2.9594,2.968,2.9685,2.9785,2.9843,2.992,2.9968,2.9976,3.0042,3.0039,3.0077,3.0095,3.0188,3.0226,3.0185,3.0342,3.0315,3.0326,3.0314,3.0323,3.033,3.032,3.0177,0,0,0,0,0,2.9605,2.9672,2.9743,2.9824,2.9854,2.9906,2.9947,2.9967,3.003,3.0055,3.0105,3.0166,3.0236,3.0282,3.035,3.0451,3.0469,3.0494,3.0501,3.0506,3.0515,3.0573,3.0585,3.0457,3.0457,3.0456,0,0,2.9628,2.9684,2.9724,2.9825,2.9873,2.9943,2.9926,3.0,3.0052,3.0066,3.0158,3.0197,3.0268,3.0366,3.0412,3.04,3.0555,3.0514,3.0518,3.0524,3.058,3.0592,3.0603,3.0461,3.046,3.0459,0,0,2.9707,2.9755,2.9828,2.9876,2.9949,2.9983,3.0001,3.0076,3.0103,3.0195,3.0208,3.027,3.039,3.044,3.0481,3.0579,3.0585,3.06,3.0638,3.0693,3.0703,3.0712,3.0748,3.0761,3.0609,3.0609,3.0609,0,2.9727,2.9831,2.9864,2.9938,2.9983,2.9999,3.0074,3.0119,3.0211,3.0242,3.0227,3.0379,3.0427,3.0538,3.0562,3.0594,3.0616,3.0591,3.0699,3.0709,3.0718,3.0752,3.0766,3.061,3.061,3.061,3.061,0,2.9852,2.9925,2.9975,3.0063,3.0114,3.0187,3.0233,3.028,3.0296,3.0332,3.0426,3.0485,3.0566,3.0594,3.061,3.0707,3.0698,3.0691,3.0665,3.0731,3.0764,3.0777,3.0612,3.0612,3.0611,3.0611,0,0,2.9933,3.0039,3.0057,3.0098,3.018,3.0236,3.0311,3.039,3.043,3.0493,3.0557,3.0658,3.0652,3.0699,3.0721,3.077,3.0845,3.0757,3.0759,3.0772,3.0957,3.0962,3.0977,3.0849,3.0852,3.0854,3.0951,0,3.0021,3.0155,3.0188,3.0302,3.037,3.0386,3.0451,3.0509,3.0544,3.0607,3.0647,3.0718,3.0704,3.0733,3.0782,3.0825,3.0883,3.0819,3.091,3.0913,3.0893,3.0994,3.1,3.1089,3.0964,3.0966,3.0968,0,3.0142,3.0208,3.0329,3.0402,3.0432,3.049,3.0566,3.0625,3.0691,3.0714,3.0766,3.0784,3.0863,3.0833,3.0943,3.0899,3.0938,3.0965,3.0969,3.098,3.0945,3.1008,3.1118,3.1131,3.0989,3.0987,3.0985,0,3.019,3.0308,3.0396,3.043,3.0518,3.0559,3.0598,3.0661,3.0707,3.0773,3.0803,3.0877,3.0918,3.0976,3.1013,3.0988,3.1121,3.1093,3.1143,3.1142,3.1171,3.1168,3.1289,3.1194,3.1194,3.1194,3.1193,0,3.0286,3.0359,3.0419,3.0473,3.0557,3.0594,3.0675,3.0714,3.0771,3.0834,3.0852,3.0911,3.0956,3.1021,3.1051,3.1138,3.1156,3.1177,3.1185,3.1176,3.1174,3.1203,3.1198,3.1197,3.1197,3.1196,3.1195,0,3.0353,3.0396,3.0493,3.0569,3.059,3.0648,3.0713,3.0766,3.0802,3.0881,3.0902,3.0959,3.1036,3.1079,3.1176,3.1196,3.1294,3.1298,3.1272,3.1275,3.1323,3.1318,3.1467,3.1489,3.1379,3.138,3.138,0,3.0412,3.0469,3.055,3.0594,3.0633,3.0702,3.0749,3.0788,3.0836,3.0916,3.096,3.1039,3.1104,3.1227,3.1277,3.1351,3.1358,3.1405,3.1369,3.1359,3.136,3.1356,3.1363,3.1411,3.1412,3.1413,3.1414,0,3.0511,3.053,3.0596,3.0671,3.0726,3.0787,3.0847,3.0881,3.093,3.0983,3.1063,3.1113,3.1213,3.1291,3.1369,3.141,3.1421,3.1424,3.144,3.1432,3.1416,3.1427,3.129,3.1421,3.142,3.142,3.1419,3.1419,3.0577,3.0629,3.0695,3.0768,3.0818,3.0874,3.0928,3.0971,3.1038,3.1122,3.1141,3.1225,3.129,3.1397,3.144,3.1506,3.1498,3.152,3.1526,3.1531,3.1533,3.1404,3.1521,3.1521,3.152,3.152,3.152,0,3.0678,3.0721,3.0789,3.0872,3.0931,3.0935,3.1002,3.1051,3.1124,3.1184,3.1248,3.134,3.1416,3.1472,3.155,3.1593,3.16,3.1612,3.161,3.1619,3.1536,3.1515,3.1605,3.1605,3.1605,3.1605,3.1605,3.1605,3.0737,3.0826,3.0852,3.0966,3.1009,3.1091,3.1129,3.1181,3.123,3.1331,3.1395,3.1431,3.149,3.1572,3.1642,3.1657,3.1685,3.1697,3.1713,3.1634,3.1625,3.1616,3.1597,3.1703,3.1703,3.1791,3.1791,3.1792]}]]